Tracking 20232 objects as of 21-Jan-2020
HD Live streaming from Space Station
objects crossing your sky now

NAVSTAR 27 (USA 84)

Track NAVSTAR 27 (USA 84) now!
NAVSTAR 27 (USA 84) is classified as:


NORAD ID: 22108
Int'l Code: 1992-058A
Perigee: 21,364.9 km
Apogee: 21,440.9 km
Inclination: 55.0 °
Period: 767.7 minutes
Semi major axis: 27773 km
RCS: 3.0849 m2 (large)
Launch date: September 9, 1992
Source: United States (US)
Launch site: AIR FORCE EASTERN TEST RANGE (AFETR)
aabbcc
Your satellite tracking list
Your tracking list is empty




NASA's NSSDC Master Catalog

Two Line Element Set (TLE):
1 22108U 92058A   20015.99735845  .00000041  00000-0  00000+0 0  9999
2 22108  54.9597 246.9521 0013680 359.4121   0.6628  1.87562939199041
Source of the keplerian elements: AFSPC